Stündliche Wetter Czyprki

Heute, 31 Oktober, Samstag

Zeit Temperatur Niederschläge Wind Luftdruck Luftfeuchtigkeit
00:00 +6°C° 0 mm 2 m/S 750 mmHg 94%
01:00 +6°C° 0 mm 2 m/S 750 mmHg 96%
02:00 +6°C° 0 mm 2 m/S 750 mmHg 96%
03:00 +6°C° 0 mm 2 m/S 751 mmHg 96%
04:00 +6°C° 0 mm 2 m/S 751 mmHg 96%
05:00 +6°C° 0 mm 2 m/S 751 mmHg 96%
06:00 +6°C° 0 mm 2 m/S 752 mmHg 96%
07:00 +7°C° 0 mm 1 m/S 752 mmHg 97%
08:00 +8°C° 0 mm 1 m/S 753 mmHg 94%
09:00 +8°C° 0 mm 1 m/S 753 mmHg 91%
10:00 +8°C° 0 mm 2 m/S 754 mmHg 88%
11:00 +9°C° 0 mm 2 m/S 754 mmHg 85%
12:00 +9°C° 0 mm 2 m/S 754 mmHg 82%
13:00 +10°C° 0 mm 2 m/S 754 mmHg 79%
14:00 +10°C° 0 mm 1 m/S 754 mmHg 81%
15:00 +9°C° 0 mm 1 m/S 754 mmHg 84%
16:00 +9°C° 0 mm 1 m/S 754 mmHg 86%
17:00 +8°C° 0 mm 1 m/S 754 mmHg 87%
18:00 +8°C° 0 mm 1 m/S 754 mmHg 88%
19:00 +7°C° 0 mm 1 m/S 754 mmHg 90%
20:00 +7°C° 0 mm 1 m/S 755 mmHg 90%
21:00 +7°C° 0 mm 1 m/S 755 mmHg 91%
22:00 +7°C° 0 mm 1 m/S 755 mmHg 92%
23:00 +6°C° 0 mm 1 m/S 755 mmHg 92%

Morgen, 1 November, Sonntag

Zeit Temperatur Niederschläge Wind Luftdruck Luftfeuchtigkeit
00:00 +6°C° 0 mm 1 m/S 755 mmHg 92%
01:00 +6°C° 0 mm 1 m/S 755 mmHg 93%
02:00 +6°C° 0 mm 1 m/S 755 mmHg 93%
03:00 +6°C° 0 mm 1 m/S 754 mmHg 93%
04:00 +5°C° 0 mm 1 m/S 754 mmHg 93%
05:00 +4°C° 0 mm 2 m/S 754 mmHg 93%
06:00 +4°C° 0 mm 2 m/S 754 mmHg 94%
07:00 +4°C° 0 mm 2 m/S 753 mmHg 94%
08:00 +5°C° 0 mm 2 m/S 753 mmHg 88%
09:00 +7°C° 0 mm 2 m/S 753 mmHg 83%
10:00 +8°C° 0 mm 3 m/S 753 mmHg 77%
11:00 +9°C° 0 mm 3 m/S 752 mmHg 75%
12:00 +9°C° 0 mm 3 m/S 752 mmHg 72%
13:00 +10°C° 0 mm 4 m/S 751 mmHg 70%
14:00 +8°C° 0 mm 4 m/S 751 mmHg 74%
15:00 +8°C° 0 mm 3 m/S 750 mmHg 78%
16:00 +7°C° 0 mm 3 m/S 750 mmHg 81%
17:00 +6°C° 0 mm 4 m/S 749 mmHg 82%
18:00 +6°C° 0 mm 4 m/S 749 mmHg 83%
19:00 +5°C° 0 mm 4 m/S 749 mmHg 84%
20:00 +5°C° 0 mm 4 m/S 748 mmHg 84%
21:00 +5°C° 0 mm 4 m/S 748 mmHg 83%
22:00 +5°C° 0 mm 4 m/S 747 mmHg 83%
23:00 +5°C° 0.1 mm 4 m/S 747 mmHg 83%

übermorgen, 2 November, Montag

Zeit Temperatur Niederschläge Wind Luftdruck Luftfeuchtigkeit
00:00 +5°C° 0.1 mm 4 m/S 747 mmHg 83%
01:00 +6°C° 0.1 mm 4 m/S 746 mmHg 83%
02:00 +6°C° 0.3 mm 4 m/S 746 mmHg 86%
03:00 +6°C° 0.3 mm 4 m/S 746 mmHg 88%
04:00 +6°C° 0.3 mm 4 m/S 746 mmHg 90%
05:00 +6°C° 0.1 mm 4 m/S 746 mmHg 91%
06:00 +6°C° 0.1 mm 4 m/S 746 mmHg 91%
07:00 +6°C° 0.1 mm 4 m/S 746 mmHg 91%
08:00 +7°C° 0.1 mm 4 m/S 746 mmHg 91%
09:00 +7°C° 0.1 mm 4 m/S 746 mmHg 92%
10:00 +8°C° 0.1 mm 4 m/S 746 mmHg 92%
11:00 +9°C° 0 mm 3 m/S 747 mmHg 92%
12:00 +10°C° 0 mm 3 m/S 747 mmHg 93%
13:00 +10°C° 0 mm 3 m/S 747 mmHg 93%
14:00 +10°C° 0 mm 3 m/S 747 mmHg 94%
15:00 +10°C° 0 mm 2 m/S 747 mmHg 95%
16:00 +10°C° 0 mm 2 m/S 747 mmHg 96%
17:00 +10°C° 0 mm 2 m/S 747 mmHg 96%
18:00 +10°C° 0 mm 2 m/S 748 mmHg 96%
19:00 +10°C° 0 mm 2 m/S 748 mmHg 96%
20:00 +10°C° 0 mm 2 m/S 748 mmHg 95%
21:00 +9°C° 0 mm 3 m/S 748 mmHg 95%
22:00 +9°C° 0 mm 3 m/S 748 mmHg 94%
23:00 +10°C° 0 mm 3 m/S 748 mmHg 94%

3 November, Dienstag

Zeit Temperatur Niederschläge Wind Luftdruck Luftfeuchtigkeit
00:00 +10°C° 0 mm 3 m/S 748 mmHg 94%
01:00 +11°C° 0 mm 4 m/S 748 mmHg 95%
02:00 +11°C° 0.2 mm 3 m/S 748 mmHg 96%
03:00 +11°C° 0.2 mm 3 m/S 748 mmHg 97%
04:00 +11°C° 0.2 mm 3 m/S 748 mmHg 97%
05:00 +12°C° 0 mm 3 m/S 748 mmHg 97%
06:00 +13°C° 0 mm 2 m/S 748 mmHg 97%
07:00 +13°C° 0 mm 2 m/S 749 mmHg 97%
08:00 +13°C° 0 mm 2 m/S 749 mmHg 95%
09:00 +14°C° 0 mm 2 m/S 749 mmHg 93%
10:00 +15°C° 0 mm 2 m/S 750 mmHg 91%
11:00 +13°C° 0.2 mm 3 m/S 750 mmHg 91%
12:00 +13°C° 0.2 mm 3 m/S 750 mmHg 90%
13:00 +13°C° 0.2 mm 3 m/S 751 mmHg 89%
14:00 +12°C° 0.1 mm 3 m/S 751 mmHg 88%
15:00 +12°C° 0.1 mm 2 m/S 751 mmHg 87%
16:00 +12°C° 0.1 mm 2 m/S 752 mmHg 86%
17:00 +10°C° 0 mm 2 m/S 752 mmHg 85%
18:00 +9°C° 0 mm 2 m/S 753 mmHg 85%
19:00 +8°C° 0 mm 2 m/S 754 mmHg 84%
20:00 +8°C° 0 mm 2 m/S 754 mmHg 84%
21:00 +7°C° 0 mm 2 m/S 754 mmHg 84%
22:00 +7°C° 0 mm 2 m/S 754 mmHg 85%
23:00 +7°C° 0 mm 2 m/S 755 mmHg 86%

4 November, Mittwoch

Zeit Temperatur Niederschläge Wind Luftdruck Luftfeuchtigkeit
00:00 +6°C° 0 mm 2 m/S 755 mmHg 87%
01:00 +6°C° 0 mm 2 m/S 755 mmHg 87%
02:00 +6°C° 0 mm 2 m/S 755 mmHg 87%
03:00 +6°C° 0 mm 2 m/S 755 mmHg 86%
04:00 +6°C° 0 mm 2 m/S 755 mmHg 85%
05:00 +5°C° 0 mm 2 m/S 756 mmHg 85%
06:00 +5°C° 0 mm 2 m/S 756 mmHg 85%
07:00 +5°C° 0 mm 2 m/S 756 mmHg 86%
08:00 +5°C° 0 mm 3 m/S 757 mmHg 80%
09:00 +7°C° 0 mm 3 m/S 757 mmHg 75%
10:00 +7°C° 0 mm 4 m/S 757 mmHg 69%
11:00 +8°C° 0 mm 4 m/S 757 mmHg 67%
12:00 +8°C° 0 mm 4 m/S 757 mmHg 64%
13:00 +10°C° 0 mm 4 m/S 757 mmHg 62%
14:00 +9°C° 0 mm 3 m/S 757 mmHg 67%
15:00 +8°C° 0 mm 3 m/S 758 mmHg 72%
16:00 +7°C° 0 mm 2 m/S 758 mmHg 76%
17:00 +6°C° 0 mm 2 m/S 758 mmHg 79%
18:00 +6°C° 0 mm 2 m/S 758 mmHg 81%
19:00 +5°C° 0 mm 2 m/S 759 mmHg 84%
20:00 +5°C° 0 mm 2 m/S 759 mmHg 85%
21:00 +5°C° 0 mm 2 m/S 759 mmHg 87%
22:00 +4°C° 0 mm 2 m/S 759 mmHg 88%
23:00 +4°C° 0 mm 2 m/S 760 mmHg 88%

5 November, Donnerstag

Zeit Temperatur Niederschläge Wind Luftdruck Luftfeuchtigkeit
00:00 +4°C° 0 mm 2 m/S 760 mmHg 89%
01:00 +3°C° 0 mm 2 m/S 760 mmHg 89%
02:00 +3°C° 0 mm 2 m/S 760 mmHg 90%
03:00 +3°C° 0 mm 2 m/S 760 mmHg 90%
04:00 +3°C° 0 mm 2 m/S 760 mmHg 91%
05:00 +3°C° 0 mm 2 m/S 761 mmHg 92%
06:00 +3°C° 0 mm 2 m/S 761 mmHg 94%
07:00 +2°C° 0 mm 2 m/S 761 mmHg 95%
08:00 +4°C° 0 mm 2 m/S 761 mmHg 92%
09:00 +4°C° 0 mm 3 m/S 761 mmHg 89%
10:00 +5°C° 0 mm 3 m/S 761 mmHg 85%
11:00 +7°C° 0 mm 3 m/S 761 mmHg 82%
12:00 +8°C° 0 mm 3 m/S 761 mmHg 78%
13:00 +8°C° 0 mm 4 m/S 761 mmHg 74%
14:00 +8°C° 0 mm 3 m/S 761 mmHg 77%
15:00 +7°C° 0 mm 3 m/S 761 mmHg 81%
16:00 +5°C° 0 mm 3 m/S 761 mmHg 85%
17:00 +5°C° 0 mm 3 m/S 761 mmHg 86%
18:00 +5°C° 0 mm 3 m/S 761 mmHg 87%
19:00 +5°C° 0 mm 3 m/S 761 mmHg 89%
20:00 +4°C° 0 mm 3 m/S 761 mmHg 90%
21:00 +4°C° 0 mm 3 m/S 761 mmHg 91%
22:00 +3°C° 0 mm 3 m/S 761 mmHg 92%
23:00 +3°C° 0 mm 3 m/S 761 mmHg 93%
Mehr zeigen

Wir brauchen deine Erlaubnis

Meteoprog und unser Service Anbieter werden persönliche Daten aufbewahren, so wie Cookies, Geräte Bezeichnung oder ähnliche Technologien von deinem Gerät und Prozess, so wie Persönliche Daten Inhalte und Werbungen, genauso wie social Media und den Verkehr zu analysieren.

  • Aufbewahrung und/oder Zugang zu deiner Geräte Informationen.

    Cookies, Geräte Bezeichnung oder andere Informationen, können aufbewahrt oder Zugang zu deinem Gerät erhalten, für den Grund, der oben angegeben wird.

  • Personalisierte Werbung und Inhalte, Messungen, Einblick in das Publikum und Produkt Entwicklung.

    Werbungen und Inhalte können personalisiert werden, basierend auf ein Profil. Mehr Daten können besser personalisierte Werbungen und Inhalte hinzufügen. Werbung und Inhalte können gezeigt und gemessen werden. Einblicke über das Publikum, welche die Werbung gesehen haben und den Inhalt, können abgeleitet werden. So wie Daten können genutzt werden, um es zu verbessern oder die Benutzer Erfahrung zu verbessern das System und die Software.

Wenn du “Ich stimme zu” klickst, erlaubst du uns, die Cookies zu benutzen die Geräte Bezeichnung, den Web oder ähnliche Technologien zu benutzen. Deine Settings, können in deinem Gerät bei deinem Browser geändert werden.

Für den bestimmten Zweck, berechtigten Interessen beruhen darauf, mehr als auf den Inhalt. Du kannst mehr darüber in unseren Privaten und Cookie Politik lesen.